Location: Red Deer
(52.2681°N, 113.8112°W)
Time: 01:41:12
(UTC-07:00)

BlueWalker 3 - Pass Details

Date: 08 December 2022
Orbit: 499 x 517 km, 53.2° (Epoch: 29 January)

Event Time Altitude Azimuth Distance (km) Brightness Sun altitude
Rises 18:15:47 0° 287° (WNW) 2,632 6.6 -16.1°
Reaches altitude 10° 18:18:02 10° 283° (WNW) 1,739 5.6 -16.5°
Maximum altitude 18:21:51 51° 207° (SSW) 647 2.7 -17.0°
Enters shadow 18:24:30 18° 136° (SE) 1,290 3.7 -17.4°
